Time,TemperatureF,DewpointF,PressureIn,WindDirection,WindDirectionDegrees,WindSpeedMPH,WindSpeedGustMPH,Humidity,HourlyPrecipIn,Conditions,Clouds,dailyrainin,SolarRadiationWatts/m^2,SoftwareType,DateUTC
2013-03-07 00:02:00,48.6,34.0,29.85,NE,45,0.0,0.0,57,0.00,RA,OVC,0.00,0.0,WeatherDisplay:10.37,2013-03-07 08:02:00,
2013-03-07 00:07:00,48.4,33.8,29.85,ENE,68,0.0,0.0,57,0.00,RA,OVC,0.00,0.0,WeatherDisplay:10.37,2013-03-07 08:07:00,
2013-03-07 00:12:00,48.6,34.0,29.87,NNE,22,0.0,0.0,57,0.00,OVC,,0.00,0.0,WeatherDisplay:10.37,2013-03-07 08:12:00,
2013-03-07 00:17:00,48.6,34.0,29.87,SE,135,0.0,0.0,57,0.00,OVC,,0.00,0.0,WeatherDisplay:10.37,2013-03-07 08:17:00,
2013-03-07 00:22:00,48.6,34.0,29.87,SSE,158,0.0,0.0,57,0.00,OVC,,0.00,0.0,WeatherDisplay:10.37,2013-03-07 08:22:00,
2013-03-07 00:27:00,48.6,34.0,29.87,ESE,112,0.0,0.0,57,0.00,OVC,,0.00,0.0,WeatherDisplay:10.37,2013-03-07 08:27:00,
2013-03-07 00:32:00,48.6,34.0,29.87,NE,45,0.0,0.0,57,0.00,OVC,,0.00,0.0,WeatherDisplay:10.37,2013-03-07 08:32:00,
2013-03-07 00:37:00,48.4,34.3,29.87,SW,225,0.0,0.0,58,0.00,OVC,,0.00,0.0,WeatherDisplay:10.37,2013-03-07 08:37:00,
2013-03-07 00:42:00,48.4,34.3,29.87,ESE,112,0.0,0.0,58,0.00,OVC,,0.00,0.0,WeatherDisplay:10.37,2013-03-07 08:42:00,
2013-03-07 00:47:00,48.4,34.3,29.87,SE,135,0.0,0.0,58,0.00,OVC,,0.00,0.0,WeatherDisplay:10.37,2013-03-07 08:47:00,
2013-03-07 00:52:00,48.2,34.1,29.86,ESE,112,0.0,0.0,58,0.00,OVC,,0.00,0.0,WeatherDisplay:10.37,2013-03-07 08:52:00,
2013-03-07 00:57:00,48.0,33.9,29.86,NNW,338,0.0,0.0,58,0.00,OVC,,0.00,0.0,WeatherDisplay:10.37,2013-03-07 08:57:00,
2013-03-07 01:02:00,48.0,33.9,29.86,ESE,112,0.0,0.0,58,0.00,OVC,,0.00,0.0,WeatherDisplay:10.37,2013-03-07 09:02:00,
2013-03-07 01:07:00,47.7,33.6,29.86,SE,135,0.0,0.0,58,0.00,OVC,,0.00,0.0,WeatherDisplay:10.37,2013-03-07 09:07:00,
2013-03-07 01:12:00,47.5,33.4,29.86,ESE,112,0.0,0.0,58,0.00,OVC,,0.00,0.0,WeatherDisplay:10.37,2013-03-07 09:12:00,
2013-03-07 01:17:00,47.3,33.7,29.86,East,90,0.0,0.0,59,0.00,OVC,,0.00,0.0,WeatherDisplay:10.37,2013-03-07 09:17:00,
2013-03-07 01:22:00,47.1,33.5,29.86,SSE,158,0.0,0.0,59,0.00,OVC,,0.00,0.0,WeatherDisplay:10.37,2013-03-07 09:22:00,
2013-03-07 01:27:00,46.9,33.3,29.86,SW,225,0.0,0.0,59,0.00,OVC,,0.00,0.0,WeatherDisplay:10.37,2013-03-07 09:27:00,
2013-03-07 01:32:00,46.8,33.2,29.86,SE,135,0.0,0.0,59,0.00,OVC,,0.00,0.0,WeatherDisplay:10.37,2013-03-07 09:32:00,
2013-03-07 01:37:00,46.4,32.8,29.86,SE,135,0.0,0.0,59,0.00,OVC,,0.00,0.0,WeatherDisplay:10.37,2013-03-07 09:37:00,
2013-03-07 01:42:00,46.2,33.1,29.86,NE,45,0.0,0.0,60,0.00,OVC,,0.00,0.0,WeatherDisplay:10.37,2013-03-07 09:42:00,
2013-03-07 01:48:00,46.2,33.1,29.86,North,0,0.0,0.1,60,0.00,OVC,,0.00,0.0,WeatherDisplay:10.37,2013-03-07 09:48:00,
2013-03-07 01:53:00,46.0,32.9,29.86,South,180,0.0,0.1,60,0.00,OVC,,0.00,0.0,WeatherDisplay:10.37,2013-03-07 09:53:00,
2013-03-07 01:58:00,45.9,32.7,29.86,ENE,68,0.0,0.0,60,0.00,OVC,,0.00,0.0,WeatherDisplay:10.37,2013-03-07 09:58:00,
2013-03-07 02:03:00,45.5,32.4,29.86,SSW,202,0.0,0.0,60,0.00,BKN,OVC,0.00,0.0,WeatherDisplay:10.37,2013-03-07 10:03:00,
2013-03-07 02:08:00,45.7,32.6,29.85,SW,225,0.0,0.0,60,0.00,BKN,OVC,0.00,0.0,WeatherDisplay:10.37,2013-03-07 10:08:00,
2013-03-07 02:13:00,45.5,32.8,29.85,WSW,248,0.0,0.0,61,0.00,BKN,OVC,0.00,0.0,WeatherDisplay:10.37,2013-03-07 10:13:00,
2013-03-07 02:18:00,45.3,32.7,29.85,WSW,248,0.0,0.0,61,0.00,BKN,OVC,0.00,0.0,WeatherDisplay:10.37,2013-03-07 10:18:00,
2013-03-07 02:23:00,45.1,32.5,29.85,West,270,0.0,0.1,61,0.00,BKN,OVC,0.00,0.0,WeatherDisplay:10.37,2013-03-07 10:23:00,
2013-03-07 02:28:00,45.3,32.7,29.85,NW,315,0.0,0.1,61,0.00,BKN,OVC,0.00,0.0,WeatherDisplay:10.37,2013-03-07 10:28:00,
2013-03-07 02:33:00,45.1,32.9,29.85,NW,315,0.0,0.0,62,0.00,BKN,OVC,0.00,0.0,WeatherDisplay:10.37,2013-03-07 10:33:00,
2013-03-07 02:38:00,45.1,32.9,29.85,WNW,292,0.0,0.0,62,0.00,BKN,OVC,0.00,0.0,WeatherDisplay:10.37,2013-03-07 10:38:00,
2013-03-07 02:43:00,45.1,32.9,29.85,WSW,248,0.0,0.0,62,0.00,BKN,OVC,0.00,0.0,WeatherDisplay:10.37,2013-03-07 10:43:00,
2013-03-07 02:48:00,45.1,32.9,29.85,SW,225,0.0,0.0,62,0.00,BKN,OVC,0.00,0.0,WeatherDisplay:10.37,2013-03-07 10:48:00,
2013-03-07 02:53:00,45.0,33.1,29.85,West,270,0.0,0.0,63,0.00,BKN,OVC,0.00,0.0,WeatherDisplay:10.37,2013-03-07 10:53:00,
2013-03-07 02:58:00,45.0,33.1,29.85,WSW,248,0.0,0.0,63,0.00,BKN,OVC,0.00,0.0,WeatherDisplay:10.37,2013-03-07 10:58:00,
2013-03-07 03:03:00,45.0,33.5,29.85,WNW,292,0.0,0.0,64,0.00,FEW,OVC,0.00,0.0,WeatherDisplay:10.37,2013-03-07 11:03:00,
2013-03-07 03:08:00,45.0,33.5,29.84,WSW,248,1.2,1.2,64,0.00,FEW,OVC,0.00,0.0,WeatherDisplay:10.37,2013-03-07 11:08:00,
2013-03-07 03:13:00,45.0,33.9,29.84,West,270,0.0,0.2,65,0.00,FEW,OVC,0.00,0.0,WeatherDisplay:10.37,2013-03-07 11:13:00,
2013-03-07 03:18:00,44.8,33.7,29.84,SW,225,2.3,2.3,65,0.00,FEW,OVC,0.00,0.0,WeatherDisplay:10.37,2013-03-07 11:18:00,
2013-03-07 03:23:00,44.8,34.1,29.84,West,270,2.0,2.0,66,0.00,FEW,OVC,0.00,0.0,WeatherDisplay:10.37,2013-03-07 11:23:00,
2013-03-07 03:28:00,44.8,34.1,29.83,West,270,2.3,2.3,66,0.00,FEW,OVC,0.00,0.0,WeatherDisplay:10.37,2013-03-07 11:28:00,
2013-03-07 03:33:00,44.6,33.9,29.83,West,270,1.2,1.3,66,0.00,FEW,OVC,0.00,0.0,WeatherDisplay:10.37,2013-03-07 11:33:00,
2013-03-07 03:38:00,44.6,34.3,29.83,WSW,248,2.3,2.3,67,0.00,FEW,OVC,0.00,0.0,WeatherDisplay:10.37,2013-03-07 11:38:00,
2013-03-07 03:43:00,44.6,34.3,29.83,WSW,248,1.2,1.2,67,0.00,FEW,OVC,0.00,0.0,WeatherDisplay:10.37,2013-03-07 11:43:00,
2013-03-07 03:48:00,44.4,34.5,29.83,West,270,2.3,2.3,68,0.00,FEW,OVC,0.00,0.0,WeatherDisplay:10.37,2013-03-07 11:48:00,
2013-03-07 03:53:00,44.4,34.5,29.83,WSW,248,1.2,1.2,68,0.00,FEW,OVC,0.00,0.0,WeatherDisplay:10.37,2013-03-07 11:53:00,
2013-03-07 03:58:00,44.4,34.5,29.83,SSW,202,0.0,0.5,68,0.00,FEW,OVC,0.00,0.0,WeatherDisplay:10.37,2013-03-07 11:58:00,
2013-03-07 04:03:00,44.2,34.3,29.83,West,270,0.0,0.1,68,0.00,BKN,OVC,0.00,0.0,WeatherDisplay:10.37,2013-03-07 12:03:00,
2013-03-07 04:08:00,44.2,34.3,29.83,West,270,0.0,0.1,68,0.00,BKN,OVC,0.00,0.0,WeatherDisplay:10.37,2013-03-07 12:08:00,
2013-03-07 04:13:00,44.1,34.2,29.83,ESE,112,0.0,0.0,68,0.00,BKN,OVC,0.00,0.0,WeatherDisplay:10.37,2013-03-07 12:13:00,
2013-03-07 04:18:00,44.1,34.2,29.83,SE,135,0.0,0.0,68,0.00,BKN,OVC,0.00,0.0,WeatherDisplay:10.37,2013-03-07 12:18:00,
2013-03-07 04:23:00,43.9,33.6,29.83,ENE,68,0.0,0.0,67,0.00,BKN,OVC,0.00,0.0,WeatherDisplay:10.37,2013-03-07 12:23:00,
2013-03-07 04:28:00,43.9,33.6,29.83,NW,315,0.0,0.0,67,0.00,BKN,OVC,0.00,0.0,WeatherDisplay:10.37,2013-03-07 12:28:00,
2013-03-07 04:33:00,43.9,33.6,29.83,South,180,0.0,0.0,67,0.00,BKN,OVC,0.00,0.0,WeatherDisplay:10.37,2013-03-07 12:33:00,
2013-03-07 04:38:00,43.7,33.5,29.83,West,270,0.0,0.0,67,0.00,BKN,OVC,0.00,0.0,WeatherDisplay:10.37,2013-03-07 12:38:00,
2013-03-07 04:43:00,43.7,33.8,29.83,ESE,112,0.0,0.0,68,0.00,BKN,OVC,0.00,0.0,WeatherDisplay:10.37,2013-03-07 12:43:00,
2013-03-07 04:48:00,43.5,33.7,29.83,ESE,112,0.0,0.0,68,0.00,BKN,OVC,0.00,0.0,WeatherDisplay:10.37,2013-03-07 12:48:00,
2013-03-07 04:53:00,43.3,33.5,29.83,ESE,112,0.0,0.0,68,0.00,BKN,OVC,0.00,0.0,WeatherDisplay:10.37,2013-03-07 12:53:00,
2013-03-07 04:58:00,43.3,33.5,29.83,ENE,68,0.0,0.0,68,0.00,BKN,OVC,0.00,0.0,WeatherDisplay:10.37,2013-03-07 12:58:00,
2013-03-07 05:03:00,43.2,33.7,29.83,SE,135,0.0,0.0,69,0.00,CLR,OVC,0.00,0.0,WeatherDisplay:10.37,2013-03-07 13:03:00,
2013-03-07 05:08:00,43.2,33.7,29.83,ESE,112,0.0,0.0,69,0.00,CLR,OVC,0.00,0.0,WeatherDisplay:10.37,2013-03-07 13:08:00,
2013-03-07 05:13:00,43.2,33.7,29.83,SW,225,0.0,0.0,69,0.00,CLR,OVC,0.00,0.0,WeatherDisplay:10.37,2013-03-07 13:13:00,
2013-03-07 05:18:00,43.2,33.7,29.83,WSW,248,0.0,0.0,69,0.00,CLR,OVC,0.00,0.0,WeatherDisplay:10.37,2013-03-07 13:18:00,
2013-03-07 05:23:00,43.0,33.5,29.83,ESE,112,0.0,0.0,69,0.00,CLR,OVC,0.00,0.0,WeatherDisplay:10.37,2013-03-07 13:23:00,
2013-03-07 05:28:00,43.0,33.5,29.84,ESE,112,0.0,0.0,69,0.00,CLR,OVC,0.00,0.0,WeatherDisplay:10.37,2013-03-07 13:28:00,
2013-03-07 05:33:00,43.0,33.5,29.84,West,270,0.0,0.0,69,0.00,CLR,OVC,0.00,0.0,WeatherDisplay:10.37,2013-03-07 13:33:00,
2013-03-07 05:38:00,43.0,33.9,29.84,WSW,248,0.0,0.0,70,0.00,CLR,OVC,0.00,0.0,WeatherDisplay:10.37,2013-03-07 13:38:00,
2013-03-07 05:43:00,42.8,33.7,29.84,SW,225,0.0,0.0,70,0.00,CLR,OVC,0.00,0.0,WeatherDisplay:10.37,2013-03-07 13:43:00,
2013-03-07 05:48:00,42.8,33.7,29.84,NW,315,0.0,0.0,70,0.00,CLR,OVC,0.00,0.0,WeatherDisplay:10.37,2013-03-07 13:48:00,
2013-03-07 05:53:00,43.0,33.9,29.84,South,180,0.0,0.0,70,0.00,CLR,OVC,0.00,0.0,WeatherDisplay:10.37,2013-03-07 13:53:00,
2013-03-07 05:58:00,43.0,33.9,29.84,SW,225,0.0,0.0,70,0.00,CLR,OVC,0.00,0.0,WeatherDisplay:10.37,2013-03-07 13:58:00,
2013-03-07 06:03:00,42.8,33.7,29.84,WSW,248,0.0,0.0,70,0.00,CLR,OVC,0.00,0.0,WeatherDisplay:10.37,2013-03-07 14:03:00,
2013-03-07 06:08:00,42.8,33.7,29.83,South,180,0.0,0.0,70,0.00,CLR,OVC,0.00,0.0,WeatherDisplay:10.37,2013-03-07 14:08:00,
2013-03-07 06:14:00,42.8,33.7,29.83,West,270,0.0,0.0,70,0.00,CLR,OVC,0.00,0.0,WeatherDisplay:10.37,2013-03-07 14:14:00,
2013-03-07 06:19:00,42.8,33.7,29.83,WSW,248,0.0,0.0,70,0.00,CLR,OVC,0.00,0.0,WeatherDisplay:10.37,2013-03-07 14:19:00,
2013-03-07 06:24:00,42.8,33.7,29.83,West,270,1.2,1.2,70,0.00,CLR,OVC,0.00,0.0,WeatherDisplay:10.37,2013-03-07 14:24:00,
2013-03-07 06:29:00,42.8,33.7,29.83,West,270,0.0,0.1,70,0.00,CLR,OVC,0.00,0.0,WeatherDisplay:10.37,2013-03-07 14:29:00,
2013-03-07 06:34:00,42.8,33.7,29.83,NW,315,0.0,0.0,70,0.00,CLR,OVC,0.00,0.0,WeatherDisplay:10.37,2013-03-07 14:34:00,
2013-03-07 06:39:00,42.6,34.2,29.83,West,270,0.0,0.1,72,0.00,CLR,OVC,0.00,0.0,WeatherDisplay:10.37,2013-03-07 14:39:00,
2013-03-07 06:44:00,42.6,34.2,29.83,NW,315,0.0,0.1,72,0.00,CLR,OVC,0.00,0.0,WeatherDisplay:10.37,2013-03-07 14:44:00,
2013-03-07 06:49:00,42.8,33.7,29.84,NNW,338,0.0,0.0,70,0.00,CLR,OVC,0.00,0.0,WeatherDisplay:10.37,2013-03-07 14:49:00,
2013-03-07 06:54:00,42.8,33.7,29.84,NNE,22,0.0,0.0,70,0.00,CLR,OVC,0.00,0.0,WeatherDisplay:10.37,2013-03-07 14:54:00,
2013-03-07 06:59:00,42.8,33.7,29.84,North,0,0.0,0.0,70,0.00,CLR,OVC,0.00,0.0,WeatherDisplay:10.37,2013-03-07 14:59:00,
2013-03-07 07:05:00,42.8,33.7,29.84,NNE,22,1.2,1.2,70,0.00,CLR,OVC,0.00,0.0,WeatherDisplay:10.37,2013-03-07 15:05:00,
2013-03-07 07:10:00,42.8,33.7,29.84,North,0,1.2,1.2,70,0.00,CLR,OVC,0.00,0.0,WeatherDisplay:10.37,2013-03-07 15:10:00,
2013-03-07 07:15:00,42.8,33.7,29.84,NNW,338,2.3,2.3,70,0.00,CLR,OVC,0.00,0.0,WeatherDisplay:10.37,2013-03-07 15:15:00,
2013-03-07 07:20:00,42.8,33.7,29.84,North,0,1.2,1.2,70,0.00,CLR,OVC,0.00,0.0,WeatherDisplay:10.37,2013-03-07 15:20:00,
2013-03-07 07:25:00,43.0,33.9,29.84,NW,315,1.2,1.2,70,0.00,CLR,OVC,0.00,0.0,WeatherDisplay:10.37,2013-03-07 15:25:00,
2013-03-07 07:30:00,43.0,33.9,29.84,NW,315,2.3,2.3,70,0.00,CLR,OVC,0.00,0.0,WeatherDisplay:10.37,2013-03-07 15:30:00,
2013-03-07 07:35:00,43.2,34.0,29.84,WNW,292,3.5,3.5,70,0.00,CLR,OVC,0.00,0.0,WeatherDisplay:10.37,2013-03-07 15:35:00,
2013-03-07 07:40:00,43.3,34.2,29.84,NW,315,2.3,2.3,70,0.00,CLR,OVC,0.00,0.0,WeatherDisplay:10.37,2013-03-07 15:40:00,
2013-03-07 07:45:00,43.5,34.4,29.84,WNW,292,1.2,1.7,70,0.00,CLR,OVC,0.00,0.0,WeatherDisplay:10.37,2013-03-07 15:45:00,
2013-03-07 07:50:00,44.1,34.9,29.84,WNW,292,2.3,2.3,70,0.00,CLR,OVC,0.00,0.0,WeatherDisplay:10.37,2013-03-07 15:50:00,
2013-03-07 07:55:00,44.4,35.2,29.84,NNW,338,2.3,2.3,70,0.00,CLR,OVC,0.00,0.0,WeatherDisplay:10.37,2013-03-07 15:55:00,
2013-03-07 08:00:00,45.0,35.8,29.84,NW,315,3.5,3.5,70,0.00,CLR,OVC,0.00,0.0,WeatherDisplay:10.37,2013-03-07 16:00:00,
2013-03-07 08:05:00,45.3,36.1,29.84,NNE,22,1.8,1.8,70,0.00,CLR,OVC,0.00,0.0,WeatherDisplay:10.37,2013-03-07 16:05:00,
2013-03-07 08:10:00,45.5,36.3,29.84,NW,315,2.3,2.3,70,0.00,CLR,OVC,0.00,0.0,WeatherDisplay:10.37,2013-03-07 16:10:00,
2013-03-07 08:15:00,46.2,36.6,29.84,ENE,68,2.3,2.3,69,0.00,CLR,OVC,0.00,0.0,WeatherDisplay:10.37,2013-03-07 16:15:00,
2013-03-07 08:20:00,46.6,36.9,29.84,ENE,74,1.0,2.0,69,0.00,CLR,OVC,0.00,0.0,WeatherDisplay:10.37,2013-03-07 16:20:00,
2013-03-07 08:25:00,47.5,37.4,29.84,ESE,112,2.3,2.3,68,0.00,CLR,OVC,0.00,0.0,WeatherDisplay:10.37,2013-03-07 16:25:00,
2013-03-07 08:30:00,47.8,37.8,29.83,North,0,2.3,2.3,68,0.00,CLR,OVC,0.00,0.0,WeatherDisplay:10.37,2013-03-07 16:30:00,
2013-03-07 08:35:00,48.6,38.1,29.83,NNE,22,3.5,3.5,67,0.00,CLR,OVC,0.00,0.0,WeatherDisplay:10.37,2013-03-07 16:35:00,
2013-03-07 08:40:00,49.2,38.4,29.83,NE,41,1.0,3.0,66,0.00,CLR,OVC,0.00,0.0,WeatherDisplay:10.37,2013-03-07 16:40:00,
2013-03-07 08:45:00,50.0,39.1,29.83,SE,135,2.3,2.3,66,0.00,CLR,OVC,0.00,0.0,WeatherDisplay:10.37,2013-03-07 16:45:00,
2013-03-07 08:50:00,50.2,38.9,29.83,North,0,2.3,2.3,65,0.00,CLR,OVC,0.00,0.0,WeatherDisplay:10.37,2013-03-07 16:50:00,
2013-03-07 08:55:00,50.4,38.6,29.83,North,0,1.4,1.4,64,0.00,CLR,OVC,0.00,0.0,WeatherDisplay:10.37,2013-03-07 16:55:00,
2013-03-07 09:00:00,50.5,38.8,29.83,NNW,338,1.2,1.2,64,0.00,CLR,OVC,0.00,0.0,WeatherDisplay:10.37,2013-03-07 17:00:00,
2013-03-07 09:05:00,50.9,39.1,29.83,West,270,0.0,0.3,64,0.00,CLR,OVC,0.00,0.0,WeatherDisplay:10.37,2013-03-07 17:05:00,
2013-03-07 09:10:00,51.6,39.4,29.83,NW,315,2.3,2.3,63,0.00,CLR,OVC,0.00,0.0,WeatherDisplay:10.37,2013-03-07 17:10:00,
2013-03-07 09:15:00,51.6,37.7,29.83,WNW,292,3.6,3.6,59,0.00,CLR,OVC,0.00,0.0,WeatherDisplay:10.37,2013-03-07 17:15:00,
2013-03-07 09:20:00,52.0,38.1,29.83,NW,315,4.6,4.6,59,0.00,CLR,OVC,0.00,0.0,WeatherDisplay:10.37,2013-03-07 17:20:00,
2013-03-07 09:25:00,53.1,39.1,29.83,West,264,2.0,5.0,59,0.00,CLR,OVC,0.00,0.0,WeatherDisplay:10.37,2013-03-07 17:25:00,
2013-03-07 09:30:00,52.9,37.6,29.84,NW,315,3.5,3.5,56,0.00,CLR,OVC,0.00,0.0,WeatherDisplay:10.37,2013-03-07 17:30:00,
2013-03-07 09:35:00,53.1,37.8,29.84,SW,225,2.3,2.5,56,0.00,CLR,OVC,0.00,0.0,WeatherDisplay:10.37,2013-03-07 17:35:00,
2013-03-07 09:40:00,53.2,37.9,29.84,NNW,338,3.5,3.5,56,0.00,CLR,OVC,0.00,0.0,WeatherDisplay:10.37,2013-03-07 17:40:00,
2013-03-07 09:45:00,53.2,37.9,29.84,West,270,3.5,3.5,56,0.00,CLR,OVC,0.00,0.0,WeatherDisplay:10.37,2013-03-07 17:45:00,
2013-03-07 09:50:00,53.1,37.3,29.83,NNW,338,3.5,3.5,55,0.00,CLR,OVC,0.00,0.0,WeatherDisplay:10.37,2013-03-07 17:50:00,
2013-03-07 09:55:00,53.8,38.0,29.83,WNW,292,3.9,3.9,55,0.00,CLR,OVC,0.00,0.0,WeatherDisplay:10.37,2013-03-07 17:55:00,
2013-03-07 10:00:00,54.1,38.3,29.83,WSW,248,4.6,4.6,55,0.00,CLR,OVC,0.00,0.0,WeatherDisplay:10.37,2013-03-07 18:00:00,
2013-03-07 10:05:00,55.2,38.9,29.83,NNE,22,2.5,2.6,54,0.00,CLR,OVC,0.00,0.0,WeatherDisplay:10.37,2013-03-07 18:05:00,
2013-03-07 10:10:00,55.0,37.7,29.83,West,270,5.8,5.8,52,0.00,CLR,OVC,0.00,0.0,WeatherDisplay:10.37,2013-03-07 18:10:00,
2013-03-07 10:15:00,56.1,38.2,29.83,WNW,283,2.0,3.0,51,0.00,CLR,OVC,0.00,0.0,WeatherDisplay:10.37,2013-03-07 18:15:00,
2013-03-07 10:20:00,56.5,36.5,29.83,NW,315,4.8,4.8,47,0.00,CLR,OVC,0.00,0.0,WeatherDisplay:10.37,2013-03-07 18:20:00,
2013-03-07 10:25:00,56.5,36.5,29.83,WNW,287,2.0,5.0,47,0.00,CLR,OVC,0.00,0.0,WeatherDisplay:10.37,2013-03-07 18:25:00,
2013-03-07 10:30:00,57.0,36.4,29.84,NW,315,4.6,4.6,46,0.00,CLR,OVC,0.00,0.0,WeatherDisplay:10.37,2013-03-07 18:30:00,
2013-03-07 10:35:00,56.7,35.5,29.84,NW,311,2.0,5.0,45,0.00,CLR,OVC,0.00,0.0,WeatherDisplay:10.37,2013-03-07 18:35:00,
2013-03-07 10:40:00,57.2,36.6,29.84,WNW,292,3.5,3.5,46,0.00,CLR,OVC,0.00,0.0,WeatherDisplay:10.37,2013-03-07 18:40:00,
2013-03-07 10:45:00,57.4,36.8,29.84,SSE,158,3.5,3.5,46,0.00,CLR,OVC,0.00,0.0,WeatherDisplay:10.37,2013-03-07 18:45:00,
2013-03-07 10:50:00,57.9,37.2,29.83,WNW,292,5.8,5.8,46,0.00,CLR,OVC,0.00,0.0,WeatherDisplay:10.37,2013-03-07 18:50:00,
2013-03-07 10:55:00,58.3,37.0,29.83,West,272,2.0,6.0,45,0.00,CLR,OVC,0.00,0.0,WeatherDisplay:10.37,2013-03-07 18:55:00,
2013-03-07 11:00:00,58.8,36.9,29.83,WSW,243,2.0,5.0,44,0.00,CLR,OVC,0.00,0.0,WeatherDisplay:10.37,2013-03-07 19:00:00,
2013-03-07 11:05:00,59.0,36.5,29.83,WNW,293,1.0,3.0,43,0.00,CLR,OVC,0.00,0.0,WeatherDisplay:10.37,2013-03-07 19:05:00,
2013-03-07 11:10:00,58.7,33.8,29.83,NNW,337,2.0,3.0,39,0.00,CLR,OVC,0.00,0.0,WeatherDisplay:10.37,2013-03-07 19:10:00,
2013-03-07 11:15:00,59.2,34.2,29.83,West,270,2.3,2.6,39,0.00,CLR,OVC,0.00,0.0,WeatherDisplay:10.37,2013-03-07 19:15:00,
2013-03-07 11:20:00,59.5,36.4,29.83,WNW,296,2.0,5.0,42,0.00,CLR,OVC,0.00,0.0,WeatherDisplay:10.37,2013-03-07 19:20:00,
2013-03-07 11:25:00,59.4,33.1,29.83,NW,315,5.8,5.8,37,0.00,CLR,OVC,0.00,0.0,WeatherDisplay:10.37,2013-03-07 19:25:00,
2013-03-07 11:31:00,59.4,31.0,29.81,NW,315,4.6,4.6,34,0.00,CLR,OVC,0.00,0.0,WeatherDisplay:10.37,2013-03-07 19:31:00,
2013-03-07 11:36:00,60.3,33.9,29.81,WSW,248,3.5,3.5,37,0.00,CLR,OVC,0.00,0.0,WeatherDisplay:10.37,2013-03-07 19:36:00,
2013-03-07 11:41:00,60.6,33.5,29.81,NE,45,3.5,3.5,36,0.00,CLR,OVC,0.00,0.0,WeatherDisplay:10.37,2013-03-07 19:41:00,
2013-03-07 11:46:00,60.4,31.9,29.81,NW,315,3.5,3.5,34,0.00,CLR,OVC,0.00,0.0,WeatherDisplay:10.37,2013-03-07 19:46:00,
2013-03-07 11:51:00,60.8,33.7,29.81,WSW,248,3.5,3.5,36,0.00,CLR,OVC,0.00,0.0,WeatherDisplay:10.37,2013-03-07 19:51:00,
2013-03-07 11:56:00,61.0,32.4,29.81,NNW,338,4.9,4.9,34,0.00,CLR,OVC,0.00,0.0,WeatherDisplay:10.37,2013-03-07 19:56:00,
2013-03-07 12:01:00,60.6,32.1,29.81,North,0,3.5,3.5,34,0.00,CLR,OVC,0.00,0.0,WeatherDisplay:10.37,2013-03-07 20:01:00,
2013-03-07 12:06:00,60.4,30.4,29.81,NW,315,3.5,3.5,32,0.00,CLR,OVC,0.00,0.0,WeatherDisplay:10.37,2013-03-07 20:06:00,
2013-03-07 12:11:00,60.6,30.6,29.81,East,90,4.6,4.6,32,0.00,CLR,OVC,0.00,0.0,WeatherDisplay:10.37,2013-03-07 20:11:00,
2013-03-07 12:16:00,61.0,31.6,29.81,NNE,22,4.6,4.6,33,0.00,CLR,OVC,0.00,0.0,WeatherDisplay:10.37,2013-03-07 20:16:00,
2013-03-07 12:21:00,61.0,30.9,29.81,NNE,22,3.6,3.6,32,0.00,CLR,OVC,0.00,0.0,WeatherDisplay:10.37,2013-03-07 20:21:00,
2013-03-07 12:26:00,61.5,32.1,29.81,West,270,2.6,2.6,33,0.00,CLR,OVC,0.00,0.0,WeatherDisplay:10.37,2013-03-07 20:26:00,
2013-03-07 12:31:00,61.5,31.4,29.81,NNE,22,3.5,3.5,32,0.00,CLR,OVC,0.00,0.0,WeatherDisplay:10.37,2013-03-07 20:31:00,
2013-03-07 12:36:00,61.7,31.5,29.81,NNW,338,5.8,5.8,32,0.00,CLR,OVC,0.00,0.0,WeatherDisplay:10.37,2013-03-07 20:36:00,
2013-03-07 12:41:00,61.7,30.7,29.81,NW,315,3.5,3.5,31,0.00,CLR,OVC,0.00,0.0,WeatherDisplay:10.37,2013-03-07 20:41:00,
2013-03-07 12:46:00,61.9,31.7,29.81,WNW,292,3.5,3.5,32,0.00,CLR,OVC,0.00,0.0,WeatherDisplay:10.37,2013-03-07 20:46:00,
2013-03-07 12:51:00,61.5,31.4,29.80,North,0,4.6,4.6,32,0.00,CLR,OVC,0.00,0.0,WeatherDisplay:10.37,2013-03-07 20:51:00,
2013-03-07 12:56:00,61.2,30.3,29.80,WNW,292,4.6,4.6,31,0.00,CLR,OVC,0.00,0.0,WeatherDisplay:10.37,2013-03-07 20:56:00,
2013-03-07 13:01:00,60.8,30.7,29.80,NNE,22,2.3,2.9,32,0.00,CLR,OVC,0.00,0.0,WeatherDisplay:10.37,2013-03-07 21:01:00,
2013-03-07 13:06:00,61.0,30.9,29.80,West,270,5.8,5.8,32,0.00,CLR,OVC,0.00,0.0,WeatherDisplay:10.37,2013-03-07 21:06:00,
2013-03-07 13:11:00,61.2,31.8,29.79,NW,315,4.6,4.6,33,0.00,CLR,OVC,0.00,0.0,WeatherDisplay:10.37,2013-03-07 21:11:00,
2013-03-07 13:16:00,61.5,32.1,29.79,North,0,4.6,4.6,33,0.00,CLR,OVC,0.00,0.0,WeatherDisplay:10.37,2013-03-07 21:16:00,
2013-03-07 13:21:00,60.8,30.7,29.79,NW,315,5.8,5.8,32,0.00,CLR,OVC,0.00,0.0,WeatherDisplay:10.37,2013-03-07 21:21:00,
2013-03-07 13:26:00,61.0,30.9,29.79,WSW,248,4.9,4.9,32,0.00,CLR,OVC,0.00,0.0,WeatherDisplay:10.37,2013-03-07 21:26:00,
2013-03-07 13:31:00,61.5,31.4,29.78,WSW,248,3.5,3.5,32,0.00,CLR,OVC,0.00,0.0,WeatherDisplay:10.37,2013-03-07 21:31:00,
2013-03-07 13:36:00,61.3,31.2,29.78,NW,315,4.6,4.6,32,0.00,CLR,OVC,0.00,0.0,WeatherDisplay:10.37,2013-03-07 21:36:00,
2013-03-07 13:41:00,61.2,31.0,29.78,NNE,22,2.3,2.3,32,0.00,CLR,OVC,0.00,0.0,WeatherDisplay:10.37,2013-03-07 21:41:00,
2013-03-07 13:46:00,61.0,30.1,29.78,NE,45,4.6,4.6,31,0.00,CLR,OVC,0.00,0.0,WeatherDisplay:10.37,2013-03-07 21:46:00,
2013-03-07 13:51:00,61.5,30.6,29.77,NNW,338,3.5,3.5,31,0.00,CLR,OVC,0.00,0.0,WeatherDisplay:10.37,2013-03-07 21:51:00,
2013-03-07 13:56:00,61.2,30.3,29.77,SE,135,4.6,4.6,31,0.00,CLR,OVC,0.00,0.0,WeatherDisplay:10.37,2013-03-07 21:56:00,
2013-03-07 14:01:00,61.3,31.2,29.77,NW,315,3.5,3.5,32,0.00,CLR,OVC,0.00,0.0,WeatherDisplay:10.37,2013-03-07 22:01:00,
2013-03-07 14:07:00,61.0,30.9,29.76,NNE,22,1.2,1.2,32,0.00,CLR,OVC,0.00,0.0,WeatherDisplay:10.37,2013-03-07 22:07:00,
2013-03-07 14:12:00,61.0,30.9,29.76,NW,315,1.2,1.2,32,0.00,CLR,OVC,0.00,0.0,WeatherDisplay:10.37,2013-03-07 22:12:00,
2013-03-07 14:17:00,60.8,29.9,29.76,NW,315,2.3,2.3,31,0.00,CLR,OVC,0.00,0.0,WeatherDisplay:10.37,2013-03-07 22:17:00,
2013-03-07 14:22:00,60.8,30.7,29.76,NNW,338,2.3,2.3,32,0.00,CLR,OVC,0.00,0.0,WeatherDisplay:10.37,2013-03-07 22:22:00,
2013-03-07 14:27:00,60.6,29.0,29.76,ENE,68,2.3,2.3,30,0.00,CLR,OVC,0.00,0.0,WeatherDisplay:10.37,2013-03-07 22:27:00,
2013-03-07 14:32:00,61.2,31.0,29.76,SE,135,1.2,2.0,32,0.00,CLR,OVC,0.00,0.0,WeatherDisplay:10.37,2013-03-07 22:32:00,
2013-03-07 14:37:00,61.0,30.9,29.76,North,0,1.2,2.0,32,0.00,CLR,OVC,0.00,0.0,WeatherDisplay:10.37,2013-03-07 22:37:00,
2013-03-07 14:42:00,61.2,31.0,29.76,East,90,1.2,1.4,32,0.00,CLR,OVC,0.00,0.0,WeatherDisplay:10.37,2013-03-07 22:42:00,
2013-03-07 14:47:00,61.2,31.0,29.76,NW,315,4.6,4.6,32,0.00,CLR,OVC,0.00,0.0,WeatherDisplay:10.37,2013-03-07 22:47:00,
2013-03-07 14:52:00,61.9,31.7,29.76,NNE,22,2.3,2.3,32,0.00,CLR,OVC,0.00,0.0,WeatherDisplay:10.37,2013-03-07 22:52:00,
2013-03-07 14:57:00,61.9,31.7,29.76,WNW,292,2.3,2.3,32,0.00,CLR,OVC,0.00,0.0,WeatherDisplay:10.37,2013-03-07 22:57:00,
2013-03-07 15:02:00,61.7,30.7,29.76,WSW,248,2.3,2.3,31,0.00,BKN,OVC,0.00,0.0,WeatherDisplay:10.37,2013-03-07 23:02:00,
2013-03-07 15:07:00,62.6,31.5,29.75,SSE,158,1.2,1.6,31,0.00,BKN,OVC,0.00,0.0,WeatherDisplay:10.37,2013-03-07 23:07:00,
2013-03-07 15:12:00,62.6,31.5,29.75,ENE,68,3.6,3.6,31,0.00,BKN,OVC,0.00,0.0,WeatherDisplay:10.37,2013-03-07 23:12:00,
2013-03-07 15:18:00,62.1,30.2,29.75,NE,45,4.6,4.6,30,0.00,BKN,OVC,0.00,0.0,WeatherDisplay:10.37,2013-03-07 23:18:00,
2013-03-07 15:23:00,61.7,29.9,29.75,ENE,68,4.6,4.6,30,0.00,BKN,OVC,0.00,0.0,WeatherDisplay:10.37,2013-03-07 23:23:00,
2013-03-07 15:28:00,61.5,28.1,29.75,NNE,22,4.6,4.6,28,0.00,BKN,OVC,0.00,0.0,WeatherDisplay:10.37,2013-03-07 23:28:00,
2013-03-07 15:33:00,61.7,29.1,29.75,SW,225,1.6,2.1,29,0.00,BKN,OVC,0.00,0.0,WeatherDisplay:10.37,2013-03-07 23:33:00,
2013-03-07 15:38:00,61.9,30.1,29.75,NW,315,1.2,1.3,30,0.00,BKN,OVC,0.00,0.0,WeatherDisplay:10.37,2013-03-07 23:38:00,
2013-03-07 15:43:00,61.9,29.2,29.75,WSW,248,2.3,2.3,29,0.00,BKN,OVC,0.00,0.0,WeatherDisplay:10.37,2013-03-07 23:43:00,
2013-03-07 15:48:00,61.5,29.8,29.75,NNW,338,3.5,3.5,30,0.00,BKN,OVC,0.00,0.0,WeatherDisplay:10.37,2013-03-07 23:48:00,
2013-03-07 15:53:00,61.7,29.9,29.75,NW,315,0.0,1.6,30,0.00,BKN,OVC,0.00,0.0,WeatherDisplay:10.37,2013-03-07 23:53:00,
2013-03-07 15:58:00,61.5,29.8,29.75,SE,135,4.6,4.6,30,0.00,BKN,OVC,0.00,0.0,WeatherDisplay:10.37,2013-03-07 23:58:00,
2013-03-07 16:03:00,61.5,29.8,29.75,East,90,2.3,2.3,30,0.00,BKN,OVC,0.00,0.0,WeatherDisplay:10.37,2013-03-08 00:03:00,
2013-03-07 16:08:00,61.5,29.8,29.74,NNE,22,2.3,2.3,30,0.00,BKN,OVC,0.00,0.0,WeatherDisplay:10.37,2013-03-08 00:08:00,
2013-03-07 16:13:00,61.7,29.1,29.74,ESE,112,2.3,2.3,29,0.00,BKN,OVC,0.00,0.0,WeatherDisplay:10.37,2013-03-08 00:13:00,
2013-03-07 16:18:00,61.5,28.9,29.74,SE,135,3.5,3.5,29,0.00,BKN,OVC,0.00,0.0,WeatherDisplay:10.37,2013-03-08 00:18:00,
2013-03-07 16:24:00,61.7,29.9,29.74,South,180,0.0,1.0,30,0.00,BKN,OVC,0.00,0.0,WeatherDisplay:10.37,2013-03-08 00:24:00,
2013-03-07 16:29:00,61.5,29.8,29.74,SE,135,0.0,0.6,30,0.00,BKN,OVC,0.00,0.0,WeatherDisplay:10.37,2013-03-08 00:29:00,
2013-03-07 16:34:00,61.3,28.8,29.74,North,0,1.2,1.2,29,0.00,BKN,OVC,0.00,0.0,WeatherDisplay:10.37,2013-03-08 00:34:00,
2013-03-07 16:39:00,61.2,27.8,29.74,SSE,158,2.3,2.3,28,0.00,BKN,OVC,0.00,0.0,WeatherDisplay:10.37,2013-03-08 00:39:00,
2013-03-07 16:44:00,61.2,27.8,29.74,ESE,112,1.2,1.2,28,0.00,BKN,OVC,0.00,0.0,WeatherDisplay:10.37,2013-03-08 00:44:00,
2013-03-07 16:49:00,61.0,27.6,29.74,ESE,112,1.2,1.2,28,0.00,BKN,OVC,0.00,0.0,WeatherDisplay:10.37,2013-03-08 00:49:00,
2013-03-07 16:54:00,60.6,26.4,29.74,East,90,2.3,2.3,27,0.00,BKN,OVC,0.00,0.0,WeatherDisplay:10.37,2013-03-08 00:54:00,
2013-03-07 16:59:00,60.4,26.3,29.74,SSE,158,1.2,1.2,27,0.00,BKN,OVC,0.00,0.0,WeatherDisplay:10.37,2013-03-08 00:59:00,
2013-03-07 17:04:00,60.4,26.3,29.74,ESE,112,3.5,3.5,27,0.00,BKN,OVC,0.00,0.0,WeatherDisplay:10.37,2013-03-08 01:04:00,
2013-03-07 17:09:00,60.3,26.1,29.74,ESE,112,1.2,1.2,27,0.00,BKN,OVC,0.00,0.0,WeatherDisplay:10.37,2013-03-08 01:09:00,
2013-03-07 17:15:00,60.3,26.1,29.74,SE,135,0.0,0.5,27,0.00,BKN,OVC,0.00,0.0,WeatherDisplay:10.37,2013-03-08 01:15:00,
2013-03-07 17:20:00,59.9,24.9,29.74,ENE,68,1.6,1.6,26,0.00,BKN,OVC,0.00,0.0,WeatherDisplay:10.37,2013-03-08 01:20:00,
2013-03-07 17:25:00,59.7,23.8,29.74,ENE,68,0.0,0.6,25,0.00,BKN,OVC,0.00,0.0,WeatherDisplay:10.37,2013-03-08 01:25:00,
2013-03-07 17:30:00,59.7,23.8,29.73,ESE,112,1.2,1.2,25,0.00,BKN,OVC,0.00,0.0,WeatherDisplay:10.37,2013-03-08 01:30:00,
2013-03-07 17:35:00,59.5,23.6,29.73,ESE,112,0.0,0.2,25,0.00,BKN,OVC,0.00,0.0,WeatherDisplay:10.37,2013-03-08 01:35:00,
2013-03-07 17:40:00,59.5,22.7,29.73,ESE,112,0.0,0.3,24,0.00,BKN,OVC,0.00,0.0,WeatherDisplay:10.37,2013-03-08 01:40:00,
2013-03-07 17:45:00,59.4,22.5,29.73,ENE,68,2.3,2.3,24,0.00,BKN,OVC,0.00,0.0,WeatherDisplay:10.37,2013-03-08 01:45:00,
2013-03-07 17:50:00,59.0,22.2,29.73,ENE,57,0.0,2.0,24,0.00,BKN,OVC,0.00,0.0,WeatherDisplay:10.37,2013-03-08 01:50:00,
2013-03-07 17:55:00,58.8,23.0,29.73,ESE,112,0.0,0.1,25,0.00,BKN,OVC,0.00,0.0,WeatherDisplay:10.37,2013-03-08 01:55:00,
2013-03-07 18:00:00,58.8,24.0,29.73,East,90,0.0,0.1,26,0.00,BKN,OVC,0.00,0.0,WeatherDisplay:10.37,2013-03-08 02:00:00,
2013-03-07 18:05:00,58.6,24.7,29.73,SSE,158,0.0,0.0,27,0.00,FEW,OVC,0.00,0.0,WeatherDisplay:10.37,2013-03-08 02:05:00,
2013-03-07 18:10:00,58.3,25.3,29.73,NNW,338,0.0,0.0,28,0.00,FEW,OVC,0.00,0.0,WeatherDisplay:10.37,2013-03-08 02:10:00,
2013-03-07 18:15:00,57.9,25.8,29.73,ESE,112,1.3,1.3,29,0.00,FEW,OVC,0.00,0.0,WeatherDisplay:10.37,2013-03-08 02:15:00,
2013-03-07 18:20:00,57.6,26.3,29.73,West,270,4.6,4.6,30,0.00,FEW,OVC,0.00,0.0,WeatherDisplay:10.37,2013-03-08 02:20:00,
2013-03-07 18:25:00,57.0,25.9,29.73,ENE,68,1.0,1.0,30,0.00,FEW,OVC,0.00,0.0,WeatherDisplay:10.37,2013-03-08 02:25:00,
2013-03-07 18:30:00,56.7,27.9,29.74,NE,45,1.6,1.6,33,0.00,FEW,OVC,0.00,0.0,WeatherDisplay:10.37,2013-03-08 02:30:00,
2013-03-07 18:35:00,56.5,29.8,29.74,NE,53,1.0,3.0,36,0.00,FEW,OVC,0.00,0.0,WeatherDisplay:10.37,2013-03-08 02:35:00,
2013-03-07 18:40:00,55.9,31.3,29.74,ENE,68,2.3,2.3,39,0.00,FEW,OVC,0.00,0.0,WeatherDisplay:10.37,2013-03-08 02:40:00,
2013-03-07 18:45:00,55.9,31.3,29.74,NE,35,1.0,2.0,39,0.00,FEW,OVC,0.00,0.0,WeatherDisplay:10.37,2013-03-08 02:45:00,
2013-03-07 18:50:00,55.9,31.9,29.74,ENE,68,0.0,0.0,40,0.00,FEW,OVC,0.00,0.0,WeatherDisplay:10.37,2013-03-08 02:50:00,
2013-03-07 18:55:00,55.4,32.1,29.74,ENE,68,2.3,2.3,41,0.00,FEW,OVC,0.00,0.0,WeatherDisplay:10.37,2013-03-08 02:55:00,
2013-03-07 19:00:00,55.2,33.1,29.74,NNE,22,2.3,2.3,43,0.00,FEW,OVC,0.00,0.0,WeatherDisplay:10.37,2013-03-08 03:00:00,
2013-03-07 19:05:00,55.0,33.5,29.74,NE,54,1.0,2.0,44,0.00,FEW,OVC,0.00,0.0,WeatherDisplay:10.37,2013-03-08 03:05:00,
2013-03-07 19:10:00,54.9,33.3,29.75,ESE,104,1.0,1.0,44,0.00,FEW,OVC,0.00,0.0,WeatherDisplay:10.37,2013-03-08 03:10:00,
2013-03-07 19:15:00,54.5,33.6,29.75,ENE,68,2.3,2.3,45,0.00,FEW,OVC,0.00,0.0,WeatherDisplay:10.37,2013-03-08 03:15:00,
2013-03-07 19:20:00,54.5,34.1,29.75,ENE,68,1.2,1.2,46,0.00,FEW,OVC,0.00,0.0,WeatherDisplay:10.37,2013-03-08 03:20:00,
2013-03-07 19:25:00,54.3,34.0,29.75,East,90,1.2,1.2,46,0.00,FEW,OVC,0.00,0.0,WeatherDisplay:10.37,2013-03-08 03:25:00,
2013-03-07 19:30:00,54.1,33.8,29.74,SSE,158,0.0,0.3,46,0.00,FEW,OVC,0.00,0.0,WeatherDisplay:10.37,2013-03-08 03:30:00,
2013-03-07 19:35:00,54.1,33.8,29.74,NE,45,1.2,1.2,46,0.00,FEW,OVC,0.00,0.0,WeatherDisplay:10.37,2013-03-08 03:35:00,
2013-03-07 19:41:00,54.0,34.2,29.74,ENE,68,0.0,0.1,47,0.00,FEW,OVC,0.00,0.0,WeatherDisplay:10.37,2013-03-08 03:41:00,
2013-03-07 19:46:00,54.0,34.2,29.74,NNE,22,0.0,0.1,47,0.00,FEW,OVC,0.00,0.0,WeatherDisplay:10.37,2013-03-08 03:46:00,
2013-03-07 19:51:00,54.0,34.2,29.75,NNW,338,0.0,0.0,47,0.00,FEW,OVC,0.00,0.0,WeatherDisplay:10.37,2013-03-08 03:51:00,
2013-03-07 19:56:00,53.8,34.0,29.75,NNW,338,0.0,0.0,47,0.00,FEW,OVC,0.00,0.0,WeatherDisplay:10.37,2013-03-08 03:56:00,
2013-03-07 20:01:00,53.6,33.8,29.75,ESE,112,0.0,0.0,47,0.00,CLR,OVC,0.00,0.0,WeatherDisplay:10.37,2013-03-08 04:01:00,
2013-03-07 20:06:00,53.4,34.2,29.75,NNE,22,0.0,0.0,48,0.00,CLR,OVC,0.00,0.0,WeatherDisplay:10.37,2013-03-08 04:06:00,
2013-03-07 20:11:00,53.2,34.0,29.74,WNW,292,0.0,0.0,48,0.00,CLR,OVC,0.00,0.0,WeatherDisplay:10.37,2013-03-08 04:11:00,
2013-03-07 20:16:00,53.2,34.6,29.74,NW,315,0.0,0.0,49,0.00,CLR,OVC,0.00,0.0,WeatherDisplay:10.37,2013-03-08 04:16:00,
2013-03-07 20:21:00,52.9,34.2,29.74,North,0,0.0,0.0,49,0.00,CLR,OVC,0.00,0.0,WeatherDisplay:10.37,2013-03-08 04:21:00,
2013-03-07 20:26:00,52.7,34.1,29.74,NE,45,0.0,0.0,49,0.00,CLR,OVC,0.00,0.0,WeatherDisplay:10.37,2013-03-08 04:26:00,
2013-03-07 20:31:00,52.5,33.9,29.75,NE,45,0.0,0.0,49,0.00,CLR,OVC,0.00,0.0,WeatherDisplay:10.37,2013-03-08 04:31:00,
2013-03-07 20:36:00,52.3,33.7,29.75,NW,315,0.0,0.0,49,0.00,CLR,OVC,0.00,0.0,WeatherDisplay:10.37,2013-03-08 04:36:00,
2013-03-07 20:41:00,52.2,34.1,29.75,NW,315,0.0,0.0,50,0.00,CLR,OVC,0.00,0.0,WeatherDisplay:10.37,2013-03-08 04:41:00,
2013-03-07 20:46:00,52.0,33.9,29.75,NNE,22,0.0,0.0,50,0.00,CLR,OVC,0.00,0.0,WeatherDisplay:10.37,2013-03-08 04:46:00,
2013-03-07 20:51:00,51.6,34.1,29.75,NW,315,0.0,0.0,51,0.00,CLR,OVC,0.00,0.0,WeatherDisplay:10.37,2013-03-08 04:51:00,
2013-03-07 20:56:00,51.4,33.9,29.75,NW,315,0.0,0.0,51,0.00,CLR,OVC,0.00,0.0,WeatherDisplay:10.37,2013-03-08 04:56:00,
2013-03-07 21:00:00,51.4,34.4,29.75,North,0,0.0,0.0,52,0.00,CLR,OVC,0.00,0.0,WeatherDisplay:10.37,2013-03-08 05:00:00,
2013-03-07 21:02:00,51.3,34.2,29.75,NNW,338,0.0,0.0,52,0.00,CLR,OVC,0.00,0.0,WeatherDisplay:10.37,2013-03-08 05:02:00,
2013-03-07 21:07:00,51.1,34.1,29.73,NW,315,1.2,1.2,52,0.00,CLR,OVC,0.00,0.0,WeatherDisplay:10.37,2013-03-08 05:07:00,
2013-03-07 21:12:00,51.1,34.1,29.73,West,270,0.0,0.1,52,0.00,CLR,OVC,0.00,0.0,WeatherDisplay:10.37,2013-03-08 05:12:00,
2013-03-07 21:17:00,50.7,34.2,29.73,West,270,0.0,0.0,53,0.00,CLR,OVC,0.00,0.0,WeatherDisplay:10.37,2013-03-08 05:17:00,
2013-03-07 21:22:00,50.7,34.2,29.73,West,270,0.0,0.0,53,0.00,CLR,OVC,0.00,0.0,WeatherDisplay:10.37,2013-03-08 05:22:00,
2013-03-07 21:27:00,50.4,33.9,29.74,West,270,0.0,0.0,53,0.00,CLR,OVC,0.00,0.0,WeatherDisplay:10.37,2013-03-08 05:27:00,
2013-03-07 21:32:00,50.4,33.9,29.74,NW,315,0.0,0.0,53,0.00,CLR,OVC,0.00,0.0,WeatherDisplay:10.37,2013-03-08 05:32:00,
2013-03-07 21:37:00,50.2,34.2,29.74,NNW,338,0.0,0.0,54,0.00,CLR,OVC,0.00,0.0,WeatherDisplay:10.37,2013-03-08 05:37:00,
2013-03-07 21:42:00,50.0,34.0,29.74,NW,315,0.0,0.0,54,0.00,CLR,OVC,0.00,0.0,WeatherDisplay:10.37,2013-03-08 05:42:00,
2013-03-07 21:47:00,50.0,34.0,29.74,West,270,0.0,0.0,54,0.00,CLR,OVC,0.00,0.0,WeatherDisplay:10.37,2013-03-08 05:47:00,
2013-03-07 21:52:00,49.8,34.3,29.74,NW,315,0.0,0.0,55,0.00,CLR,OVC,0.00,0.0,WeatherDisplay:10.37,2013-03-08 05:52:00,
2013-03-07 21:57:00,49.6,34.1,29.74,NW,315,0.0,0.0,55,0.00,CLR,OVC,0.00,0.0,WeatherDisplay:10.37,2013-03-08 05:57:00,
2013-03-07 22:02:00,49.6,34.1,29.74,West,270,0.0,0.0,55,0.00,SCT,OVC,0.00,0.0,WeatherDisplay:10.37,2013-03-08 06:02:00,
2013-03-07 22:07:00,49.5,34.0,29.74,NW,315,0.0,0.0,55,0.00,SCT,OVC,0.00,0.0,WeatherDisplay:10.37,2013-03-08 06:07:00,
2013-03-07 22:12:00,49.3,34.2,29.74,WNW,292,0.0,0.0,56,0.00,SCT,OVC,0.00,0.0,WeatherDisplay:10.37,2013-03-08 06:12:00,
2013-03-07 22:17:00,49.3,34.2,29.74,WNW,292,0.0,0.3,56,0.00,SCT,OVC,0.00,0.0,WeatherDisplay:10.37,2013-03-08 06:17:00,
2013-03-07 22:22:00,49.3,34.2,29.74,NW,315,1.2,1.2,56,0.00,SCT,OVC,0.00,0.0,WeatherDisplay:10.37,2013-03-08 06:22:00,
2013-03-07 22:27:00,49.1,34.5,29.74,NW,315,1.8,1.8,57,0.00,SCT,OVC,0.00,0.0,WeatherDisplay:10.37,2013-03-08 06:27:00,
2013-03-07 22:32:00,48.9,34.8,29.74,NNW,338,2.3,2.3,58,0.00,SCT,OVC,0.00,0.0,WeatherDisplay:10.37,2013-03-08 06:32:00,
2013-03-07 22:37:00,48.7,35.0,29.74,NW,315,2.3,2.3,59,0.00,SCT,OVC,0.00,0.0,WeatherDisplay:10.37,2013-03-08 06:37:00,
2013-03-07 22:42:00,48.9,35.2,29.74,NW,315,2.3,2.3,59,0.00,SCT,OVC,0.00,0.0,WeatherDisplay:10.37,2013-03-08 06:42:00,
2013-03-07 22:47:00,49.1,35.4,29.74,WSW,248,1.2,1.2,59,0.00,SCT,OVC,0.00,0.0,WeatherDisplay:10.37,2013-03-08 06:47:00,
2013-03-07 22:52:00,49.1,35.4,29.74,NW,315,0.0,0.1,59,0.00,SCT,OVC,0.00,0.0,WeatherDisplay:10.37,2013-03-08 06:52:00,
2013-03-07 22:57:00,49.1,35.4,29.74,NNW,338,0.0,0.0,59,0.00,SCT,OVC,0.00,0.0,WeatherDisplay:10.37,2013-03-08 06:57:00,
2013-03-07 23:02:00,48.9,35.2,29.74,NW,315,1.2,1.2,59,0.00,BKN,OVC,0.00,0.0,WeatherDisplay:10.37,2013-03-08 07:02:00,
2013-03-07 23:07:00,48.7,35.0,29.73,NW,315,1.2,1.2,59,0.00,BKN,OVC,0.00,0.0,WeatherDisplay:10.37,2013-03-08 07:07:00,
2013-03-07 23:12:00,48.7,35.5,29.73,WNW,292,2.3,2.3,60,0.00,BKN,OVC,0.00,0.0,WeatherDisplay:10.37,2013-03-08 07:12:00,
2013-03-07 23:17:00,48.7,35.5,29.73,NW,315,1.2,1.2,60,0.00,BKN,OVC,0.00,0.0,WeatherDisplay:10.37,2013-03-08 07:17:00,
2013-03-07 23:22:00,48.7,35.5,29.73,NW,315,1.2,1.2,60,0.00,BKN,OVC,0.00,0.0,WeatherDisplay:10.37,2013-03-08 07:22:00,
2013-03-07 23:27:00,48.7,35.9,29.73,NW,315,2.3,2.3,61,0.00,BKN,OVC,0.00,0.0,WeatherDisplay:10.37,2013-03-08 07:27:00,
2013-03-07 23:32:00,48.7,35.9,29.73,NNW,338,2.3,2.3,61,0.00,BKN,OVC,0.00,0.0,WeatherDisplay:10.37,2013-03-08 07:32:00,
2013-03-07 23:37:00,48.7,35.9,29.73,WNW,292,2.3,2.3,61,0.00,BKN,OVC,0.00,0.0,WeatherDisplay:10.37,2013-03-08 07:37:00,
2013-03-07 23:42:00,48.7,36.3,29.73,NW,315,2.3,2.3,62,0.00,BKN,OVC,0.00,0.0,WeatherDisplay:10.37,2013-03-08 07:42:00,
2013-03-07 23:47:00,48.7,36.3,29.73,NE,45,2.3,2.3,62,0.00,BKN,OVC,0.00,0.0,WeatherDisplay:10.37,2013-03-08 07:47:00,
2013-03-07 23:52:00,48.7,36.3,29.73,NNE,22,0.0,0.8,62,0.00,BKN,OVC,0.00,0.0,WeatherDisplay:10.37,2013-03-08 07:52:00,
2013-03-07 23:57:00,48.7,36.3,29.73,NW,315,1.2,1.2,62,0.00,BKN,OVC,0.00,0.0,WeatherDisplay:10.37,2013-03-08 07:57:00,